Weather History for Sioux Falls, SD

Change the Weather History Date:

Saturday, November 16, 2013

  Actual Average Record
Temperature  
Mean Temperature 46 °F 32 °F  
Max Temperature 54 °F 42 °F 74 °F (1953)
Min Temperature 37 °F 23 °F -6 °F (1959)
Degree Days  
Heating Degree Days 19 33  
Month to date heating degree days 459 453  
Since 1 July heating degree days 1094 1193  
Cooling Degree Days 0 0  
Month to date cooling degree days 0 0  
Year to date cooling degree days 787 690  
Moisture  
Dew Point 39 °F    
Average Humidity 82    
Maximum Humidity 100    
Minimum Humidity 58    
Precipitation  
Precipitation T in 0.05 in 1.15 in (1971)
Month to date precipitation 0.44 0.74  
Year to date precipitation 24.64 25.07  
Snow  
Snow 0.00 in 0.30 in 4.00 in (1909)
Month to date snowfall 6.8 3.1  
Since 1 July snowfall 7.2 4.4  
Since 1 September snowfall 7.2 4.4  
Snow Depth 0.00 in    
Sea Level Pressure  
Sea Level Pressure 29.35 in    
Wind  
Wind Speed 8 mph (South)    
Max Wind Speed 16 mph    
Max Gust Speed 0 mph    
Visibility 7 miles    
Events      
T = Trace of Precipitation, MM = Missing Value Source: NWS Daily Summary

Daily Weather History Graph

Daily Weather History Graph

Search for Another Location

Airport:

Trip Planner

Search our weather history database for the weather conditions in past years. The results will help you decide how hot, cold, wet, or windy it might be!

Date:

Astronomy

Nov. 16, 2013 Rise Set
Actual Time 7:22 AM CST 5:00 PM CST
Civil Twilight 6:51 AM CST 5:31 PM CST
Nautical Twilight 6:16 AM CST 6:06 PM CST
Astronomical Twilight 5:42 AM CST 6:40 PM CST
Moon 4:37 PM CST (11/16) 6:18 AM CST (11/16)
Length of Visible Light 10h 40m
Length of Day
9h 38m
Waxing Gibbous, 99% of the Moon is Illuminated
Nov 16
Waxing Gibbous
Nov 17
Full
Nov 25
Last Quarter
Dec 2
New
Dec 9
First Quarter

Hourly Weather History & Observations

Time (CST) Temp. Windchill Dew Point Humidity Pressure Visibility Wind Dir Wind Speed Gust Speed Precip Events Conditions
12:56 AM 39.9 °F 32.5 °F 35.1 °F 83% 29.52 in 10.0 mi South 12.7 mph - N/A   Clear
1:56 AM 39.9 °F 32.9 °F 36.0 °F 86% 29.50 in 10.0 mi South 11.5 mph - N/A   Clear
2:56 AM 39.0 °F 33.4 °F 36.0 °F 89% 29.49 in 10.0 mi South 8.1 mph - N/A   Clear
3:56 AM 37.9 °F 33.5 °F 35.1 °F 89% 29.46 in 9.0 mi SE 5.8 mph - N/A   Clear
4:56 AM 37.0 °F 33.3 °F 36.0 °F 96% 29.43 in 7.0 mi ESE 4.6 mph - N/A   Overcast
5:19 AM 37.9 °F 32.1 °F 36.0 °F 93% 29.39 in 6.0 mi SE 8.1 mph - N/A   Overcast
5:30 AM 37.9 °F 32.7 °F 37.0 °F 97% 29.39 in 6.0 mi SE 6.9 mph - N/A   Overcast
5:56 AM 39.0 °F 33.4 °F 37.9 °F 96% 29.39 in 4.0 mi SE 8.1 mph - N/A   Overcast
6:04 AM 39.0 °F 32.8 °F 37.9 °F 96% 29.37 in 4.0 mi SSE 9.2 mph - N/A   Overcast
6:56 AM 41.0 °F 33.9 °F 39.9 °F 96% 29.39 in 3.0 mi SSE 12.7 mph - N/A   Overcast
7:42 AM 43.0 °F 37.2 °F 42.1 °F 97% 29.36 in 3.0 mi SSE 10.4 mph - N/A   Overcast
7:50 AM 42.8 °F 37.0 °F 42.8 °F 100% 29.35 in 2.5 mi SE 10.4 mph - N/A   Overcast
7:56 AM 43.0 °F 37.7 °F 42.1 °F 97% 29.37 in 2.5 mi SE 9.2 mph - N/A   Overcast
8:30 AM 43.0 °F 37.2 °F 42.1 °F 97% 29.34 in 3.0 mi SE 10.4 mph - N/A   Overcast
8:56 AM 43.0 °F 38.8 °F 42.1 °F 97% 29.35 in 3.0 mi ESE 6.9 mph - N/A   Overcast
9:56 AM 46.0 °F 41.4 °F 44.1 °F 93% 29.32 in 3.0 mi SE 9.2 mph - 0.00 in   Overcast
10:56 AM 46.9 °F - 45.0 °F 93% 29.31 in 3.0 mi SSE 8.1 mph - N/A   Overcast
11:18 AM 48.0 °F - 45.0 °F 89% 29.26 in 5.0 mi SE 10.4 mph - N/A   Overcast
11:56 AM 48.9 °F - 45.0 °F 86% 29.26 in 6.0 mi South 12.7 mph - N/A   Overcast
12:56 PM 50.0 °F - 44.1 °F 80% 29.26 in 10.0 mi SSW 13.8 mph - N/A   Overcast
1:56 PM 50.0 °F - 44.1 °F 80% 29.25 in 9.0 mi SW 8.1 mph - N/A   Overcast
2:17 PM 50.0 °F - 44.1 °F 80% 29.23 in 9.0 mi WSW 8.1 mph - N/A   Overcast
2:41 PM 52.0 °F - 44.1 °F 74% 29.22 in 10.0 mi Variable 5.8 mph - N/A   Scattered Clouds
2:56 PM 52.0 °F - 42.1 °F 69% 29.23 in 10.0 mi SW 6.9 mph - N/A   Scattered Clouds
3:56 PM 51.1 °F - 37.9 °F 61% 29.27 in 10.0 mi WSW 5.8 mph - N/A   Scattered Clouds
4:56 PM 46.9 °F - 37.0 °F 68% 29.28 in 10.0 mi SSW 4.6 mph - N/A   Mostly Cloudy
5:56 PM 46.0 °F - 36.0 °F 68% 29.30 in 10.0 mi Calm Calm - N/A   Clear
6:56 PM 44.1 °F 40.8 °F 33.1 °F 65% 29.32 in 10.0 mi WSW 5.8 mph - N/A   Mostly Cloudy
7:56 PM 45.0 °F 42.6 °F 32.0 °F 60% 29.34 in 10.0 mi WSW 4.6 mph - N/A   Mostly Cloudy
8:56 PM 44.1 °F 40.1 °F 32.0 °F 63% 29.36 in 10.0 mi WSW 6.9 mph - N/A   Mostly Cloudy
9:56 PM 44.1 °F 40.1 °F 32.0 °F 63% 29.38 in 10.0 mi WSW 6.9 mph - N/A   Mostly Cloudy
10:56 PM 42.1 °F 37.1 °F 32.0 °F 67% 29.39 in 10.0 mi West 8.1 mph - N/A   Mostly Cloudy
11:56 PM 42.1 °F 36.1 °F 34.0 °F 73% 29.40 in 10.0 mi West 10.4 mph - N/A   Mostly Cloudy